Knox, IN

6:54 AM CDT on August 24, 2017 (GMT -0500)
Starke County

Weather History for KOXI - May, 2013

Change the Weather History Date:

Sunday, May 5, 2013

  Actual Average (KRCR) Record (KRCR)
Temperature  
Mean Temperature 60 °F -  
Max Temperature 82 °F 65 °F 80 °F (2015)
Min Temperature 49 °F 43 °F 42 °F (2016)
Degree Days  
Heating Degree Days 4    
Growing Degree Days 10 (Base 50)    
Moisture  
Dew Point 46 °F    
Average Humidity 61    
Maximum Humidity 97    
Minimum Humidity 34    
Precipitation  
Precipitation 0.00 in - - ()
Sea Level Pressure  
Sea Level Pressure 29.98 in    
Wind  
Wind Speed 6 mph (East)    
Max Wind Speed 17 mph    
Max Gust Speed 25 mph    
Visibility 10 miles    
Events      
Averages and records for this station are not official NWS values.
T = Trace of Precipitation, MM = Missing Value Source: NWS Daily Summary

Daily Weather History Graph

Daily Weather History Graph

Search for Another Location

Airport or City:

Trip Planner

Search our weather history database for the weather conditions in past years. The results will help you decide how hot, cold, wet, or windy it might be!

Date:

Astronomy

May. 05, 2013 Rise Set
Actual Time 5:38 AM CDT 7:48 PM CDT
Civil Twilight 5:08 AM CDT 8:19 PM CDT
Nautical Twilight 4:30 AM CDT 8:56 PM CDT
Astronomical Twilight 3:49 AM CDT 9:38 PM CDT
Moon 3:11 AM CDT (5/5) 3:45 PM CDT (5/5)
Length of Visible Light 15h 10m
Length of Day
14h 09m
Waning Crescent, 18% of the Moon is Illuminated
May 5
Waning Crescent
May 9
New
May 17
First Quarter
May 24
Full
May 31
Last Quarter

Hourly Weather History & Observations

Time (CDT) Temp. Dew Point Humidity Pressure Visibility Wind Dir Wind Speed Gust Speed Precip Events Conditions
12:15 AM 53.6 °F 51.4 °F 92% 30.01 in 10.0 mi Calm Calm - N/A   Clear
12:35 AM 53.2 °F 51.6 °F 94% 30.01 in 10.0 mi Calm Calm - N/A   Clear
12:55 AM 52.7 °F 51.1 °F 94% 30.01 in 10.0 mi North 3.5 mph - N/A   Scattered Clouds
1:15 AM 52.0 °F 50.5 °F 95% 30.00 in 10.0 mi NNE 4.6 mph - N/A   Scattered Clouds
1:35 AM 50.0 °F 49.1 °F 97% 29.99 in 10.0 mi NE 3.5 mph - N/A   Scattered Clouds
1:55 AM 50.5 °F 49.5 °F 96% 29.99 in 10.0 mi ENE 3.5 mph - N/A   Mostly Cloudy
2:15 AM 52.7 °F 50.0 °F 91% 29.98 in 10.0 mi ENE 6.9 mph - N/A   Overcast
2:35 AM 53.4 °F 49.3 °F 86% 29.98 in 10.0 mi ENE 6.9 mph - N/A   Overcast
2:55 AM 53.2 °F 48.0 °F 82% 29.98 in 10.0 mi ENE 6.9 mph - N/A   Scattered Clouds
3:15 AM 52.5 °F 47.3 °F 82% 29.97 in 10.0 mi ENE 6.9 mph - N/A   Mostly Cloudy
3:35 AM 52.0 °F 46.6 °F 82% 29.97 in 10.0 mi ENE 5.8 mph - N/A   Scattered Clouds
3:55 AM 52.0 °F 45.7 °F 79% 29.97 in 10.0 mi East 5.8 mph - N/A   Clear
4:15 AM 52.5 °F 45.0 °F 75% 29.97 in 10.0 mi ENE 6.9 mph - N/A   Clear
4:35 AM 51.4 °F 44.8 °F 78% 29.97 in 10.0 mi ENE 3.5 mph - N/A   Clear
4:55 AM 51.3 °F 44.4 °F 77% 29.97 in 10.0 mi Calm Calm - N/A   Clear
5:15 AM 51.3 °F 43.9 °F 76% 29.97 in 10.0 mi Calm Calm - N/A   Clear
5:35 AM 49.8 °F 43.7 °F 79% 29.98 in 10.0 mi NE 3.5 mph - N/A   Clear
5:55 AM 50.0 °F 43.9 °F 79% 29.98 in 10.0 mi ENE 4.6 mph - N/A   Clear
6:15 AM 50.9 °F 44.1 °F 77% 29.98 in 10.0 mi NE 5.8 mph - N/A   Clear
6:35 AM 50.7 °F 44.8 °F 80% 29.99 in 10.0 mi NE 5.8 mph - N/A   Clear
6:55 AM 51.4 °F 45.1 °F 79% 29.99 in 10.0 mi ENE 5.8 mph - N/A   Clear
7:15 AM 53.4 °F 45.9 °F 76% 30.00 in 10.0 mi East 4.6 mph - N/A   Clear
7:35 AM 55.9 °F 45.5 °F 68% 29.99 in 10.0 mi East 5.8 mph - N/A   Clear
7:55 AM 58.3 °F 44.6 °F 60% 30.00 in 10.0 mi ESE 8.1 mph - N/A   Clear
8:15 AM 59.4 °F 44.2 °F 57% 29.99 in 10.0 mi East 6.9 mph - N/A   Clear
8:35 AM 59.7 °F 44.4 °F 57% 30.00 in 10.0 mi East 9.2 mph - N/A   Clear
8:55 AM 61.2 °F 44.4 °F 54% 30.01 in 10.0 mi ESE 10.4 mph - N/A   Clear
9:15 AM 62.4 °F 44.6 °F 52% 30.00 in 10.0 mi ESE 8.1 mph - N/A   Clear
9:35 AM 63.9 °F 45.0 °F 50% 30.00 in 10.0 mi East 8.1 mph - N/A   Clear
9:55 AM 65.7 °F 45.3 °F 48% 30.00 in 10.0 mi East 8.1 mph - N/A   Clear
10:15 AM 66.9 °F 45.1 °F 45% 30.00 in 10.0 mi ENE 8.1 mph - N/A   Clear
10:35 AM 68.0 °F 44.6 °F 43% 30.00 in 10.0 mi ESE 10.4 mph - N/A   Clear
10:55 AM 69.1 °F 44.2 °F 41% 29.99 in 10.0 mi East 9.2 mph 17.3 mph N/A   Clear
11:15 AM 69.6 °F 45.0 °F 41% 29.99 in 10.0 mi ENE 13.8 mph 19.6 mph N/A   Clear
11:35 AM 69.8 °F 45.0 °F 41% 29.99 in 10.0 mi ENE 12.7 mph 17.3 mph N/A   Clear
11:55 AM 70.3 °F 45.0 °F 40% 29.98 in 10.0 mi ENE 12.7 mph 19.6 mph N/A   Clear
12:15 PM 71.4 °F 44.6 °F 38% 29.98 in 10.0 mi ENE 16.1 mph 23.0 mph N/A   Clear
12:35 PM 71.4 °F 42.8 °F 36% 29.97 in 10.0 mi East 17.3 mph 25.3 mph N/A   Clear
12:55 PM 70.5 °F 42.6 °F 36% 29.97 in 10.0 mi East 15.0 mph 19.6 mph N/A   Clear
1:15 PM 70.9 °F 41.7 °F 35% 29.97 in 10.0 mi East 13.8 mph 24.2 mph N/A   Clear
1:35 PM 71.6 °F 41.5 °F 34% 29.97 in 10.0 mi East 12.7 mph 24.2 mph N/A   Clear
1:55 PM 71.6 °F 42.4 °F 35% 29.97 in 10.0 mi East 17.3 mph 24.2 mph N/A   Clear
2:15 PM 70.7 °F 41.5 °F 35% 29.97 in 10.0 mi ESE 10.4 mph 20.7 mph N/A   Clear
2:35 PM 72.0 °F 42.8 °F 35% 29.96 in 10.0 mi ESE 16.1 mph 20.7 mph N/A   Scattered Clouds
2:55 PM 72.1 °F 43.5 °F 36% 29.96 in 10.0 mi East 15.0 mph 20.7 mph N/A   Scattered Clouds
3:15 PM 70.9 °F 44.1 °F 38% 29.96 in 10.0 mi East 12.7 mph 19.6 mph N/A   Scattered Clouds
3:35 PM 70.7 °F 44.4 °F 39% 29.96 in 10.0 mi East 15.0 mph 18.4 mph N/A   Scattered Clouds
3:55 PM 70.2 °F 44.4 °F 40% 29.96 in 10.0 mi East 16.1 mph 21.9 mph N/A   Scattered Clouds
4:15 PM 69.8 °F 45.1 °F 41% 29.96 in 10.0 mi East 16.1 mph - N/A   Scattered Clouds
4:35 PM 69.4 °F 45.3 °F 42% 29.96 in 10.0 mi SE 15.0 mph - N/A   Overcast
4:55 PM 68.7 °F 45.5 °F 43% 29.96 in 10.0 mi ESE 13.8 mph 17.3 mph N/A   Overcast
5:15 PM 68.4 °F 45.5 °F 44% 29.97 in 10.0 mi ESE 11.5 mph - N/A   Overcast
5:35 PM 68.4 °F 45.7 °F 44% 29.96 in 10.0 mi East 13.8 mph - N/A   Mostly Cloudy
5:55 PM 68.4 °F 45.5 °F 44% 29.96 in 10.0 mi East 11.5 mph - N/A   Scattered Clouds
6:15 PM 68.4 °F 45.1 °F 43% 29.97 in 10.0 mi East 12.7 mph - N/A   Scattered Clouds
6:35 PM 68.2 °F 44.8 °F 43% 29.96 in 10.0 mi ESE 8.1 mph - N/A   Mostly Cloudy
6:55 PM 67.1 °F 46.4 °F 47% 29.97 in 10.0 mi SSE 8.1 mph - N/A   Mostly Cloudy
7:15 PM 66.0 °F 47.5 °F 51% 29.97 in 10.0 mi SE 4.6 mph - N/A   Mostly Cloudy
7:35 PM 64.9 °F 47.8 °F 54% 29.97 in 10.0 mi SSE 4.6 mph - N/A   Scattered Clouds
7:55 PM 63.5 °F 47.7 °F 56% 29.98 in 10.0 mi South 3.5 mph - N/A   Scattered Clouds
8:15 PM 62.1 °F 47.8 °F 60% 29.98 in 10.0 mi South 4.6 mph - N/A   Mostly Cloudy
8:35 PM 60.8 °F 48.0 °F 63% 29.98 in 10.0 mi SSW 3.5 mph - N/A   Overcast
8:55 PM 59.9 °F 48.2 °F 65% 29.99 in 10.0 mi SSW 6.9 mph - N/A   Mostly Cloudy
9:15 PM 61.0 °F 48.0 °F 62% 30.00 in 10.0 mi SW 3.5 mph - N/A   Overcast
9:35 PM 60.8 °F 48.4 °F 64% 30.00 in 10.0 mi Calm Calm - N/A   Overcast
9:55 PM 60.1 °F 49.1 °F 67% 30.01 in 10.0 mi Calm Calm - N/A   Overcast
10:15 PM 58.1 °F 50.9 °F 77% 30.00 in 10.0 mi North 3.5 mph - N/A   Overcast
10:35 PM 57.7 °F 52.2 °F 82% 30.00 in 10.0 mi North 4.6 mph - N/A   Overcast
10:55 PM 56.7 °F 51.8 °F 84% 30.00 in 10.0 mi NE 5.8 mph - N/A   Overcast
11:15 PM 57.6 °F 51.3 °F 79% 29.99 in 10.0 mi North 3.5 mph - N/A   Overcast
11:35 PM 57.2 °F 51.8 °F 82% 29.99 in 10.0 mi NNW 4.6 mph - N/A   Overcast
11:55 PM 56.7 °F 52.0 °F 84% 29.99 in 10.0 mi NNW 5.8 mph - N/A   Overcast